Home > Weather > Monza > Past weeks

Flag for Italy Past Weather in Monza, Italy — Yesterday and Last 2 Weeks

Now
63 °F

Clear.


Feels Like: 63 °F
Forecast: 62 / 80 °F
Wind: No wind

Location: Milan / Linate

Current Time: May 27, 2016 at 4:33:55 AM

Latest Report: May 27, 2016 at 3:50 AM


Visibility: 10 mi

Pressure: 30.01 "Hg

Humidity: 73%

Dew Point: 54 °F

Location of MonzaLocation

Past Weather in Monza — Graph

°F

Monza Temperature Yesterday

Maximum temperature yesterday: 79 °F (at 3:20 PM)
Minimum temperature yesterday: 57 °F (at 5:20 AM)
Average temperature yesterday: 70 °F

High & Low Weather Summary for the Past Weeks

 TemperatureHumidityPressure
High81 °F (May 21, 5:50 PM)100% (May 14, 1:50 AM)30.12 "Hg (May 14, 1:50 AM)
Low46 °F (May 20, 5:20 AM)16% (May 15, 3:50 PM)29.45 "Hg (May 13, 4:50 AM)
Average63 °F63%29.86 "Hg
* Reported May 12 3:20 AM — May 27 3:20 AM, Monza, Weather by CustomWeather, © 2016

Note: Actual official high and low records may vary slightly from our data, if they occured in-between our weather recording intervals... More about our weather records

Advertising

Monza Weather History for the Previous 24 Hours

Scroll right to see more
 ConditionsComfort  
Time TempWeatherWind HumidityBarometerVisibility
3:20 AM
Fri, May 27
63 °FClear.1 mph73%30.01 "Hg10 mi
2:50 AM64 °FClear.No wind64%30.01 "Hg10 mi
2:20 AM63 °FClear.No wind68%30.01 "Hg10 mi
1:50 AM66 °FClear.1 mph56%30.01 "Hg10 mi
1:20 AM68 °FClear.2 mph53%30.01 "Hg10 mi
12:50 AM68 °FPassing clouds.3 mph56%30.01 "HgN/A
12:20 AM66 °FPassing clouds.3 mph64%30.01 "HgN/A
11:50 PM
Thu, May 26
66 °FClear.2 mph64%30.01 "Hg10 mi
11:20 PM66 °FPassing clouds.3 mph68%30.01 "HgN/A
10:50 PM68 °FClear.1 mph60%29.98 "Hg10 mi
10:20 PM70 °FPassing clouds.2 mph57%29.98 "HgN/A
9:50 PM72 °FPassing clouds.2 mph50%29.98 "HgN/A
9:20 PM73 °FSunny.5 mph47%29.98 "Hg10 mi
8:50 PM73 °FSunny.5 mph44%29.98 "Hg10 mi
8:20 PM77 °FSunny.5 mph36%29.98 "Hg10 mi
7:50 PM77 °FPassing clouds.5 mph36%29.95 "HgN/A
7:20 PM77 °FPassing clouds.6 mph36%29.95 "HgN/A
6:50 PM79 °FPassing clouds.5 mph34%29.95 "HgN/A
6:20 PM79 °FPassing clouds.3 mph30%29.95 "HgN/A
5:50 PM79 °FPassing clouds.3 mph37%29.95 "HgN/A
5:20 PM79 °FPassing clouds.3 mph32%29.95 "HgN/A
4:50 PM79 °FSunny.6 mph34%29.95 "Hg10 mi
4:20 PM79 °FPassing clouds.5 mph34%29.95 "HgN/A
3:50 PM77 °FPassing clouds.5 mph36%29.98 "HgN/A
3:20 PM79 °FSunny.2 mph32%29.98 "Hg10 mi
2:50 PM77 °FPassing clouds.6 mph39%29.98 "HgN/A
2:20 PM77 °FSunny.5 mph34%29.98 "Hg10 mi
1:50 PM77 °FSunny.2 mph39%29.98 "Hg10 mi
1:20 PM75 °FPassing clouds.6 mph36%30.01 "HgN/A
12:50 PM75 °FSunny.5 mph39%30.01 "Hg10 mi
12:20 PM73 °FSunny.5 mph41%30.01 "Hg10 mi
11:50 AM73 °FSunny.7 mph41%30.01 "Hg10 mi
11:20 AM72 °FPassing clouds.7 mph47%30.01 "HgN/A
10:50 AM72 °FSunny.5 mph47%30.01 "Hg10 mi
10:20 AM70 °FPassing clouds.3 mph53%30.01 "HgN/A
9:50 AM68 °FPassing clouds.5 mph56%30.01 "HgN/A
9:20 AM66 °FPassing clouds.5 mph60%30.01 "HgN/A
8:50 AM66 °FPassing clouds.5 mph60%30.01 "HgN/A
8:20 AM66 °FPassing clouds.3 mph60%30.01 "HgN/A
7:50 AM64 °FSunny.2 mph64%29.98 "Hg10 mi
7:20 AM64 °FSunny.1 mph64%29.98 "Hg10 mi
6:50 AM63 °FSunny.No wind64%29.98 "Hg10 mi
6:20 AM59 °FClear.No wind68%29.98 "Hg10 mi
5:50 AM59 °FClear.No wind68%29.98 "Hg10 mi
5:20 AM57 °FClear.1 mph72%29.95 "Hg10 mi
4:50 AM61 °FClear.2 mph63%29.95 "Hg10 mi
4:20 AM59 °FClear.1 mph68%29.95 "Hg10 mi
Weather by CustomWeather, © 2016

See weather overviewHow to use our weather pages